This is the latest recevied weather packets stored in our database for station/object KG2V. If no packets are shown the sender has not sent any weather packets the latest 10 day(s).
| Time | Temp. | Humidity | Pressure | Rain* | Wind** | Luminosity | Snow |
|---|---|---|---|---|---|---|---|
| 1777899788 | 14.44° C | 55% | 1002.7 hPa | 0 mm | - | 58 W/m² | - |
| 1777899485 | 14.44° C | 56% | 1002.8 hPa | 0 mm | - | 59 W/m² | - |
| 1777899183 | 13.89° C | 55% | 1003 hPa | 0 mm | - | 57 W/m² | - |
| 1777898880 | 13.33° C | 59% | 1003 hPa | 0 mm | - | 56 W/m² | - |
| 1777898577 | 12.22° C | 64% | 1002.9 hPa | 0 mm | - | 55 W/m² | - |
| 1777898274 | 12.22° C | 63% | 1003 hPa | 0 mm | - | 52 W/m² | - |
| 1777897972 | 12.22° C | 63% | 1003 hPa | 0 mm | - | 58 W/m² | - |
| 1777897667 | 12.22° C | 62% | 1003.1 hPa | 0 mm | - | 65 W/m² | - |
| 1777897364 | 11.67° C | 62% | 1003.1 hPa | 0 mm | - | 60 W/m² | - |
| 1777897060 | 11.67° C | 64% | 1003.1 hPa | 0 mm | - | 67 W/m² | - |
| 1777896757 | 11.11° C | 63% | 1003 hPa | 0 mm | - | 61 W/m² | - |
| 1777896454 | 10.56° C | 63% | 1003.1 hPa | 0 mm | - | 48 W/m² | - |
| 1777896151 | 10.56° C | 65% | 1003.2 hPa | 0 mm | - | 48 W/m² | - |
| 1777895849 | 11.11° C | 64% | 1003.2 hPa | 0 mm | - | 41 W/m² | - |
| 1777895546 | 10.56° C | 64% | 1003.1 hPa | 0 mm | - | 42 W/m² | - |
| 1777895244 | 10.56° C | 63% | 1003.2 hPa | 0 mm | - | 55 W/m² | - |
| 1777894941 | 10.56° C | 63% | 1003.1 hPa | 0 mm | - | 45 W/m² | - |
| 1777894639 | 10.56° C | 64% | 1003.1 hPa | 0 mm | - | 42 W/m² | - |
| 1777894335 | 10° C | 65% | 1003 hPa | 0 mm | - | 45 W/m² | - |
| 1777894033 | 10° C | 65% | 1002.9 hPa | 0 mm | - | 41 W/m² | - |
| 1777893729 | 10° C | 65% | 1002.9 hPa | 0 mm | - | 37 W/m² | - |
| 1777893425 | 10° C | 65% | 1002.9 hPa | 0 mm | - | 44 W/m² | - |
| 1777893121 | 10° C | 65% | 1002.8 hPa | 0 mm | - | 35 W/m² | - |
| 1777892819 | 10° C | 65% | 1003 hPa | 0 mm | - | 33 W/m² | - |
| 1777892515 | 10° C | 66% | 1003 hPa | 0 mm | - | 29 W/m² | - |
* Rain latest hour (hover to see other rain measurements)
** Current wind speed in m/s (hover to see current wind gust speed)